Time,TemperatureF,DewpointF,PressureIn,WindDirection,WindDirectionDegrees,WindSpeedMPH,WindSpeedGustMPH,Humidity,HourlyPrecipIn,Conditions,Clouds,dailyrainin,SoftwareType,DateUTC
2013-04-15 00:00:00,36.1,22.0,30.10,East,85,7.2,10.1,56,0.00,,BKN250,0.00,VWS V14.01,2013-04-15 04:00:00,
2013-04-15 00:01:00,36.1,22.0,30.10,East,98,9.2,10.1,56,0.00,,BKN250,0.00,VWS V14.01,2013-04-15 04:01:00,
2013-04-15 00:05:00,36.1,22.0,30.10,East,83,5.8,8.1,56,0.00,,BKN250,0.00,VWS V14.01,2013-04-15 04:05:00,
2013-04-15 00:10:00,36.1,22.0,30.10,ESE,106,5.4,8.7,56,0.00,,BKN250,0.00,VWS V14.01,2013-04-15 04:10:00,
2013-04-15 00:15:00,36.3,22.1,30.10,ESE,115,5.4,8.3,56,0.00,,BKN250,0.00,VWS V14.01,2013-04-15 04:15:00,
2013-04-15 00:20:00,36.3,22.6,30.10,ENE,76,8.1,8.1,57,0.00,,BKN250,0.00,VWS V14.01,2013-04-15 04:20:00,
2013-04-15 00:25:00,36.3,22.6,30.10,ESE,121,6.3,6.3,57,0.00,,BKN250,0.00,VWS V14.01,2013-04-15 04:25:00,
2013-04-15 00:30:00,36.3,22.6,30.10,ENE,60,5.4,8.3,57,0.00,,BKN250,0.00,VWS V14.01,2013-04-15 04:30:00,
2013-04-15 00:35:00,36.3,22.6,30.10,ESE,104,6.3,8.3,57,0.00,,SCT250,0.00,VWS V14.01,2013-04-15 04:35:00,
2013-04-15 00:40:00,36.1,22.4,30.10,ESE,104,4.0,8.7,57,0.00,,SCT250,0.00,VWS V14.01,2013-04-15 04:40:00,
2013-04-15 00:46:00,36.1,22.4,30.10,ESE,122,3.6,8.3,57,0.00,,SCT250,0.00,VWS V14.01,2013-04-15 04:46:00,
2013-04-15 00:51:00,36.1,22.8,30.10,ESE,112,6.3,8.7,58,0.00,,SCT250,0.00,VWS V14.01,2013-04-15 04:51:00,
2013-04-15 00:56:00,36.1,22.8,30.10,ESE,103,4.0,8.1,58,0.00,,SCT250,0.00,VWS V14.01,2013-04-15 04:56:00,
2013-04-15 01:01:00,36.0,22.6,30.10,ESE,121,3.6,8.3,58,0.00,,SCT250,0.00,VWS V14.01,2013-04-15 05:01:00,
2013-04-15 01:06:00,36.0,23.0,30.10,East,86,5.8,6.3,59,0.00,,SCT250,0.00,VWS V14.01,2013-04-15 05:06:00,
2013-04-15 01:11:00,36.0,23.0,30.10,ESE,112,6.7,8.3,59,0.00,,SCT250,0.00,VWS V14.01,2013-04-15 05:11:00,
2013-04-15 01:16:00,36.1,23.2,30.10,East,98,5.8,8.3,59,0.00,,SCT250,0.00,VWS V14.01,2013-04-15 05:16:00,
2013-04-15 01:21:00,36.0,23.0,30.07,East,92,5.8,8.7,59,0.00,,SCT250,0.00,VWS V14.01,2013-04-15 05:21:00,
2013-04-15 01:26:00,36.0,23.0,30.07,East,83,5.4,8.1,59,0.00,,SCT250,0.00,VWS V14.01,2013-04-15 05:26:00,
2013-04-15 01:31:00,36.0,23.0,30.07,East,96,6.3,8.3,59,0.00,,SCT250,0.00,VWS V14.01,2013-04-15 05:31:00,
2013-04-15 01:36:00,36.0,23.0,30.07,ESE,110,5.4,8.3,59,0.00,,BKN250,0.00,VWS V14.01,2013-04-15 05:36:00,
2013-04-15 01:42:00,36.0,23.4,30.07,SE,126,4.0,8.1,60,0.00,,BKN250,0.00,VWS V14.01,2013-04-15 05:42:00,
2013-04-15 01:47:00,36.0,23.4,30.07,ESE,123,8.1,8.3,60,0.00,,BKN250,0.00,VWS V14.01,2013-04-15 05:47:00,
2013-04-15 01:52:00,35.8,23.3,30.07,East,100,4.0,8.1,60,0.00,,BKN250,0.00,VWS V14.01,2013-04-15 05:52:00,
2013-04-15 01:57:00,36.0,23.4,30.07,ESE,110,5.4,8.7,60,0.00,,BKN250,0.00,VWS V14.01,2013-04-15 05:57:00,
2013-04-15 02:02:00,35.8,23.3,30.07,East,79,3.6,8.7,60,0.00,,BKN250,0.00,VWS V14.01,2013-04-15 06:02:00,
2013-04-15 02:07:00,35.8,23.3,30.07,East,98,4.9,6.3,60,0.00,,BKN250,0.00,VWS V14.01,2013-04-15 06:07:00,
2013-04-15 02:12:00,35.8,23.3,30.07,ESE,113,5.4,5.8,60,0.00,,BKN250,0.00,VWS V14.01,2013-04-15 06:12:00,
2013-04-15 02:17:00,35.8,23.3,30.07,East,80,5.4,6.3,60,0.00,,BKN250,0.00,VWS V14.01,2013-04-15 06:17:00,
2013-04-15 02:22:00,35.8,23.3,30.07,ESE,115,4.9,6.3,60,0.00,,BKN250,0.00,VWS V14.01,2013-04-15 06:22:00,
2013-04-15 02:27:00,35.8,23.3,30.07,East,90,5.4,5.4,60,0.00,,BKN250,0.00,VWS V14.01,2013-04-15 06:27:00,
2013-04-15 02:32:00,35.8,23.3,30.07,East,85,5.4,5.4,60,0.00,,BKN250,0.00,VWS V14.01,2013-04-15 06:32:00,
2013-04-15 02:37:00,35.8,23.3,30.07,East,91,5.4,5.8,60,0.00,,BKN250,0.00,VWS V14.01,2013-04-15 06:37:00,
2013-04-15 02:43:00,36.0,23.4,30.07,East,101,5.4,6.3,60,0.00,,BKN250,0.00,VWS V14.01,2013-04-15 06:43:00,
2013-04-15 02:48:00,35.8,23.3,30.07,East,100,4.0,4.0,60,0.00,,BKN250,0.00,VWS V14.01,2013-04-15 06:48:00,
2013-04-15 02:53:00,35.8,23.3,30.07,ENE,71,4.0,5.4,60,0.00,,BKN250,0.00,VWS V14.01,2013-04-15 06:53:00,
2013-04-15 02:58:00,35.8,23.3,30.07,East,79,3.6,4.9,60,0.00,,BKN250,0.00,VWS V14.01,2013-04-15 06:58:00,
2013-04-15 03:03:00,35.8,23.3,30.07,East,92,4.9,6.3,60,0.00,,BKN250,0.00,VWS V14.01,2013-04-15 07:03:00,
2013-04-15 03:41:00,35.8,23.3,30.04,ESE,110,5.4,7.6,60,0.00,,BKN250,0.00,VWS V14.01,2013-04-15 07:41:00,
2013-04-15 03:43:00,35.8,23.3,30.04,SE,124,7.6,7.6,60,0.00,,BKN250,0.00,VWS V14.01,2013-04-15 07:43:00,
2013-04-15 03:47:00,35.8,23.3,30.04,ESE,121,8.1,8.3,60,0.00,,BKN250,0.00,VWS V14.01,2013-04-15 07:47:00,
2013-04-15 03:48:00,35.8,23.3,30.04,ESE,112,4.0,8.1,60,0.00,,BKN250,0.00,VWS V14.01,2013-04-15 07:48:00,
2013-04-15 03:49:00,35.8,23.3,30.04,East,98,5.8,8.1,60,0.00,,BKN250,0.00,VWS V14.01,2013-04-15 07:49:00,
2013-04-15 03:51:00,35.8,23.3,30.04,ESE,106,5.4,8.1,60,0.00,,BKN250,0.00,VWS V14.01,2013-04-15 07:51:00,
2013-04-15 03:57:00,36.0,23.4,30.04,East,90,3.6,4.0,60,0.00,,BKN250,0.00,VWS V14.01,2013-04-15 07:57:00,
2013-04-15 04:02:00,36.0,23.4,30.04,ESE,109,5.8,5.8,60,0.00,,BKN250,0.00,VWS V14.01,2013-04-15 08:02:00,
2013-04-15 04:07:00,36.0,23.4,30.07,East,94,5.4,5.4,60,0.00,,BKN250,0.00,VWS V14.01,2013-04-15 08:07:00,
2013-04-15 04:12:00,36.0,23.4,30.07,East,85,4.0,5.8,60,0.00,,BKN250,0.00,VWS V14.01,2013-04-15 08:12:00,
2013-04-15 04:18:00,36.1,23.6,30.07,ESE,113,5.4,6.7,60,0.00,,BKN250,0.00,VWS V14.01,2013-04-15 08:18:00,
2013-04-15 04:23:00,36.0,23.4,30.07,East,85,4.9,6.3,60,0.00,,BKN250,0.00,VWS V14.01,2013-04-15 08:23:00,
2013-04-15 04:29:00,36.1,23.6,30.07,East,94,4.5,6.3,60,0.00,,BKN250,0.00,VWS V14.01,2013-04-15 08:29:00,
2013-04-15 04:34:00,36.1,23.6,30.07,East,101,4.0,7.6,60,0.00,,BKN250,0.00,VWS V14.01,2013-04-15 08:34:00,
2013-04-15 04:38:00,36.0,23.4,30.07,ESE,109,5.8,6.7,60,0.00,,BKN250,0.00,VWS V14.01,2013-04-15 08:38:00,
2013-04-15 04:40:00,36.0,23.4,30.07,ESE,110,4.5,8.3,60,0.00,,BKN250,0.00,VWS V14.01,2013-04-15 08:40:00,
2013-04-15 04:42:00,36.1,23.6,30.07,ESE,104,4.9,8.3,60,0.00,,BKN250,0.00,VWS V14.01,2013-04-15 08:42:00,
2013-04-15 04:47:00,36.1,24.0,30.07,SE,135,4.0,6.3,61,0.00,,BKN250,0.00,VWS V14.01,2013-04-15 08:47:00,
2013-04-15 04:52:00,36.1,24.0,30.07,ENE,74,5.4,5.8,61,0.00,,BKN250,0.00,VWS V14.01,2013-04-15 08:52:00,
2013-04-15 04:57:00,36.1,24.0,30.07,East,99,4.9,4.9,61,0.00,,BKN250,0.00,VWS V14.01,2013-04-15 08:57:00,
2013-04-15 05:02:00,36.1,24.0,30.07,ESE,108,5.4,5.4,61,0.00,,BKN250,0.00,VWS V14.01,2013-04-15 09:02:00,
2013-04-15 05:07:00,36.1,24.0,30.07,East,99,5.8,5.8,61,0.00,,BKN250,0.00,VWS V14.01,2013-04-15 09:07:00,
2013-04-15 05:12:00,36.1,24.0,30.07,East,97,3.6,5.8,61,0.00,,BKN250,0.00,VWS V14.01,2013-04-15 09:12:00,
2013-04-15 05:18:00,36.1,24.4,30.07,ESE,108,5.8,5.8,62,0.00,,BKN250,0.00,VWS V14.01,2013-04-15 09:18:00,
2013-04-15 05:23:00,36.1,24.4,30.07,ESE,113,4.0,4.0,62,0.00,,BKN250,0.00,VWS V14.01,2013-04-15 09:23:00,
2013-04-15 05:28:00,36.1,24.4,30.07,East,97,3.1,6.3,62,0.00,,BKN250,0.00,VWS V14.01,2013-04-15 09:28:00,
2013-04-15 05:33:00,36.1,24.4,30.07,East,100,2.7,4.5,62,0.00,,BKN250,0.00,VWS V14.01,2013-04-15 09:33:00,
2013-04-15 05:38:00,36.1,24.8,30.07,ENE,70,3.6,4.9,63,0.00,,BKN250,0.00,VWS V14.01,2013-04-15 09:38:00,
2013-04-15 05:43:00,36.1,24.8,30.07,East,96,2.2,4.0,63,0.00,,BKN250,0.00,VWS V14.01,2013-04-15 09:43:00,
2013-04-15 05:48:00,36.1,24.8,30.07,ENE,78,4.9,4.9,63,0.00,,BKN250,0.00,VWS V14.01,2013-04-15 09:48:00,
2013-04-15 05:53:00,36.3,25.0,30.07,East,95,4.0,5.8,63,0.00,,BKN250,0.00,VWS V14.01,2013-04-15 09:53:00,
2013-04-15 05:58:00,36.5,25.1,30.07,ESE,105,3.6,7.6,63,0.00,,BKN250,0.00,VWS V14.01,2013-04-15 09:58:00,
2013-04-15 06:03:00,36.5,25.1,30.07,East,99,4.9,4.9,63,0.00,,BKN250,0.00,VWS V14.01,2013-04-15 10:03:00,
2013-04-15 06:09:00,36.5,25.1,30.04,East,81,6.3,6.3,63,0.00,,BKN250,0.00,VWS V14.01,2013-04-15 10:09:00,
2013-04-15 06:14:00,36.5,25.5,30.04,ENE,69,5.8,6.3,64,0.00,,BKN250,0.00,VWS V14.01,2013-04-15 10:14:00,
2013-04-15 06:19:00,36.5,25.5,30.04,East,82,6.3,6.3,64,0.00,,BKN250,0.00,VWS V14.01,2013-04-15 10:19:00,
2013-04-15 06:24:00,36.3,25.3,30.04,ENE,69,6.3,6.3,64,0.00,,BKN250,0.00,VWS V14.01,2013-04-15 10:24:00,
2013-04-15 06:29:00,36.3,25.3,30.04,East,79,5.4,6.3,64,0.00,,BKN250,0.00,VWS V14.01,2013-04-15 10:29:00,
2013-04-15 06:34:00,36.3,25.7,30.04,ENE,68,5.8,6.3,65,0.00,,BKN250,0.00,VWS V14.01,2013-04-15 10:34:00,
2013-04-15 06:39:00,36.3,25.7,30.04,East,90,3.6,5.8,65,0.00,,BKN250,0.00,VWS V14.01,2013-04-15 10:39:00,
2013-04-15 06:44:00,36.3,25.7,30.04,East,79,4.9,7.6,65,0.00,,BKN250,0.00,VWS V14.01,2013-04-15 10:44:00,
2013-04-15 06:49:00,36.3,25.7,30.04,ESE,109,5.4,7.2,65,0.00,,BKN250,0.00,VWS V14.01,2013-04-15 10:49:00,
2013-04-15 06:54:00,36.5,25.9,30.04,East,87,5.8,5.8,65,0.00,,BKN250,0.00,VWS V14.01,2013-04-15 10:54:00,
2013-04-15 06:59:00,36.5,25.9,30.04,East,101,2.7,5.8,65,0.00,,BKN250,0.00,VWS V14.01,2013-04-15 10:59:00,
2013-04-15 07:04:00,36.7,26.0,30.04,East,100,5.8,7.6,65,0.00,,BKN250,0.00,VWS V14.01,2013-04-15 11:04:00,
2013-04-15 07:10:00,36.7,26.0,30.07,East,92,8.1,8.1,65,0.00,,BKN250,0.00,VWS V14.01,2013-04-15 11:10:00,
2013-04-15 07:15:00,36.9,26.2,30.07,East,97,5.4,8.1,65,0.00,,BKN250,0.00,VWS V14.01,2013-04-15 11:15:00,
2013-04-15 07:20:00,37.0,26.0,30.07,East,87,6.3,8.1,64,0.00,,BKN250,0.00,VWS V14.01,2013-04-15 11:20:00,
2013-04-15 07:25:00,37.0,26.0,30.07,ESE,112,5.4,5.8,64,0.00,,BKN250,0.00,VWS V14.01,2013-04-15 11:25:00,
2013-04-15 07:30:00,37.0,26.4,30.07,East,87,6.7,8.3,65,0.00,,BKN250,0.00,VWS V14.01,2013-04-15 11:30:00,
2013-04-15 07:35:00,37.2,26.5,30.07,ESE,103,4.9,8.3,65,0.00,,BKN250,0.00,VWS V14.01,2013-04-15 11:35:00,
2013-04-15 07:40:00,37.4,26.4,30.07,East,95,4.0,6.3,64,0.00,,BKN250,0.00,VWS V14.01,2013-04-15 11:40:00,
2013-04-15 07:45:00,37.6,26.5,30.07,ESE,110,6.3,8.1,64,0.00,,BKN250,0.00,VWS V14.01,2013-04-15 11:45:00,
2013-04-15 07:51:00,37.6,26.9,30.07,East,79,4.9,5.8,65,0.00,,BKN250,0.00,VWS V14.01,2013-04-15 11:51:00,
2013-04-15 07:57:00,37.9,27.2,30.07,East,92,5.4,5.8,65,0.00,,BKN250,0.00,VWS V14.01,2013-04-15 11:57:00,
2013-04-15 08:03:00,38.1,27.4,30.07,SE,127,4.0,6.3,65,0.00,,BKN250,0.00,VWS V14.01,2013-04-15 12:03:00,
2013-04-15 08:09:00,38.3,27.6,30.07,SE,126,4.9,5.4,65,0.00,,BKN250,0.00,VWS V14.01,2013-04-15 12:09:00,
2013-04-15 08:14:00,38.5,27.8,30.07,SSE,152,3.1,4.9,65,0.00,,BKN250,0.00,VWS V14.01,2013-04-15 12:14:00,
2013-04-15 08:19:00,38.8,28.5,30.07,ESE,118,3.6,4.0,66,0.00,,BKN250,0.00,VWS V14.01,2013-04-15 12:19:00,
2013-04-15 08:25:00,39.4,29.0,30.07,ESE,118,2.7,5.8,66,0.00,,BKN250,0.00,VWS V14.01,2013-04-15 12:25:00,
2013-04-15 08:30:00,40.1,29.7,30.07,East,86,2.7,6.3,66,0.00,,BKN250,0.00,VWS V14.01,2013-04-15 12:30:00,
2013-04-15 08:35:00,40.6,30.2,30.07,ESE,107,4.0,5.8,66,0.00,,BKN250,0.00,VWS V14.01,2013-04-15 12:35:00,
2013-04-15 08:40:00,41.2,29.9,30.07,ESE,117,3.6,7.6,64,0.00,,BKN250,0.00,VWS V14.01,2013-04-15 12:40:00,
2013-04-15 08:45:00,41.7,30.5,30.07,East,90,2.7,6.7,64,0.00,,BKN250,0.00,VWS V14.01,2013-04-15 12:45:00,
2013-04-15 08:50:00,42.3,31.0,30.07,ESE,107,5.8,6.3,64,0.00,,BKN250,0.00,VWS V14.01,2013-04-15 12:50:00,
2013-04-15 08:56:00,42.6,30.5,30.04,SE,131,2.7,7.6,62,0.00,,BKN250,0.00,VWS V14.01,2013-04-15 12:56:00,
2013-04-15 09:01:00,43.3,31.2,30.04,ESE,113,3.6,6.3,62,0.00,,BKN250,0.00,VWS V14.01,2013-04-15 13:01:00,
2013-04-15 09:06:00,44.1,31.5,30.04,ESE,102,4.0,6.3,61,0.00,,BKN250,0.00,VWS V14.01,2013-04-15 13:06:00,
2013-04-15 09:11:00,44.6,31.6,30.04,SE,128,5.8,6.3,60,0.00,,BKN250,0.00,VWS V14.01,2013-04-15 13:11:00,
2013-04-15 09:16:00,45.0,31.9,30.04,ESE,119,3.6,6.7,60,0.00,,BKN250,0.00,VWS V14.01,2013-04-15 13:16:00,
2013-04-15 09:21:00,45.5,32.4,30.04,East,93,4.0,5.4,60,0.00,,BKN250,0.00,VWS V14.01,2013-04-15 13:21:00,
2013-04-15 09:26:00,46.0,32.5,30.04,ESE,115,2.7,7.2,59,0.00,,BKN250,0.00,VWS V14.01,2013-04-15 13:26:00,
2013-04-15 09:33:00,46.8,33.2,30.04,ENE,74,4.9,6.3,59,0.00,,SCT250,0.00,VWS V14.01,2013-04-15 13:33:00,
2013-04-15 09:38:00,47.5,33.9,30.04,ESE,118,5.8,5.8,59,0.00,,SCT250,0.00,VWS V14.01,2013-04-15 13:38:00,
2013-04-15 09:43:00,48.2,33.7,30.04,East,89,4.0,6.3,57,0.00,,SCT250,0.00,VWS V14.01,2013-04-15 13:43:00,
2013-04-15 09:48:00,48.7,34.6,30.04,ESE,105,3.1,6.3,58,0.00,,SCT250,0.00,VWS V14.01,2013-04-15 13:48:00,
2013-04-15 09:53:00,49.5,34.9,30.04,ESE,107,5.8,5.8,57,0.00,,SCT250,0.00,VWS V14.01,2013-04-15 13:53:00,
2013-04-15 09:58:00,50.2,36.0,30.04,South,177,6.3,8.1,58,0.00,,SCT250,0.00,VWS V14.01,2013-04-15 13:58:00,
2013-04-15 10:04:00,51.3,37.0,30.04,ESE,109,4.9,8.7,58,0.00,,SCT250,0.00,VWS V14.01,2013-04-15 14:04:00,
2013-04-15 10:09:00,52.0,37.2,30.04,SE,125,7.6,9.2,57,0.00,,SCT250,0.00,VWS V14.01,2013-04-15 14:09:00,
2013-04-15 10:16:00,52.9,38.1,30.04,South,176,6.3,8.3,57,0.00,,SCT250,0.00,VWS V14.01,2013-04-15 14:16:00,
2013-04-15 10:21:00,53.4,38.6,30.04,SE,144,5.4,8.1,57,0.00,,SCT250,0.00,VWS V14.01,2013-04-15 14:21:00,
2013-04-15 10:26:00,54.0,38.6,30.04,SSE,164,4.5,6.3,56,0.00,,SCT250,0.00,VWS V14.01,2013-04-15 14:26:00,
2013-04-15 10:32:00,55.2,40.3,30.04,SSE,153,6.3,8.7,57,0.00,,SCT250,0.00,VWS V14.01,2013-04-15 14:32:00,
2013-04-15 10:37:00,55.8,40.8,30.04,SSE,148,6.3,6.3,57,0.00,,SCT250,0.00,VWS V14.01,2013-04-15 14:37:00,
2013-04-15 10:42:00,56.3,40.8,30.04,SE,141,3.6,5.8,56,0.00,,SCT250,0.00,VWS V14.01,2013-04-15 14:42:00,
2013-04-15 10:47:00,56.8,41.3,30.04,SSE,157,2.2,6.3,56,0.00,,SCT250,0.00,VWS V14.01,2013-04-15 14:47:00,
2013-04-15 10:53:00,57.9,41.9,30.04,SSE,156,7.2,8.1,55,0.00,,SCT250,0.00,VWS V14.01,2013-04-15 14:53:00,
2013-04-15 10:58:00,59.7,41.6,30.04,SW,234,8.3,11.0,51,0.00,,SCT250,0.00,VWS V14.01,2013-04-15 14:58:00,
2013-04-15 11:04:00,60.6,40.8,30.04,South,190,6.3,12.8,48,0.00,,SCT250,0.00,VWS V14.01,2013-04-15 15:04:00,
2013-04-15 11:09:00,61.2,40.8,30.04,WSW,240,11.4,13.2,47,0.00,,SCT250,0.00,VWS V14.01,2013-04-15 15:09:00,
2013-04-15 11:14:00,61.9,40.9,30.04,SSW,213,8.7,12.3,46,0.00,,SCT250,0.00,VWS V14.01,2013-04-15 15:14:00,
2013-04-15 11:19:00,62.2,41.2,30.04,SW,226,8.7,10.5,46,0.00,,SCT250,0.00,VWS V14.01,2013-04-15 15:19:00,
2013-04-15 11:24:00,63.0,41.3,30.01,SW,234,6.3,10.5,45,0.00,,SCT250,0.00,VWS V14.01,2013-04-15 15:24:00,
2013-04-15 11:29:00,63.1,41.5,30.01,SSW,196,5.4,8.7,45,0.00,,SCT250,0.00,VWS V14.01,2013-04-15 15:29:00,
2013-04-15 11:35:00,63.9,42.1,30.01,SSW,206,6.3,14.5,45,0.00,,SCT250,0.00,VWS V14.01,2013-04-15 15:35:00,
2013-04-15 11:40:00,64.4,41.4,30.01,South,186,7.6,16.8,43,0.00,,SCT250,0.00,VWS V14.01,2013-04-15 15:40:00,
2013-04-15 11:45:00,64.8,41.8,30.01,South,185,7.6,13.2,43,0.00,,SCT250,0.00,VWS V14.01,2013-04-15 15:45:00,
2013-04-15 11:50:00,64.9,41.9,30.01,South,184,5.8,12.3,43,0.00,,SCT250,0.00,VWS V14.01,2013-04-15 15:50:00,
2013-04-15 11:55:00,65.5,41.8,30.01,SSW,213,8.1,14.5,42,0.00,,SCT250,0.00,VWS V14.01,2013-04-15 15:55:00,
2013-04-15 12:00:00,65.7,42.6,30.01,SSW,192,8.1,12.8,43,0.00,,SCT250,0.00,VWS V14.01,2013-04-15 16:00:00,
2013-04-15 12:06:00,66.2,42.5,30.01,SSW,202,10.5,11.0,42,0.00,,SCT250,0.00,VWS V14.01,2013-04-15 16:06:00,
2013-04-15 12:11:00,66.6,42.2,30.01,SSW,207,12.3,17.0,41,0.00,,SCT250,0.00,VWS V14.01,2013-04-15 16:11:00,
2013-04-15 12:16:00,66.7,41.7,30.01,SW,219,8.1,15.0,40,0.00,,SCT250,0.00,VWS V14.01,2013-04-15 16:16:00,
2013-04-15 12:21:00,66.7,42.3,30.01,West,259,10.1,14.1,41,0.00,,SCT250,0.00,VWS V14.01,2013-04-15 16:21:00,
2013-04-15 12:26:00,66.7,41.0,30.01,SSW,196,10.5,15.0,39,0.00,,SCT250,0.00,VWS V14.01,2013-04-15 16:26:00,
2013-04-15 12:33:00,67.5,43.0,30.01,SW,218,8.3,15.0,41,0.00,,SCT250,0.00,VWS V14.01,2013-04-15 16:33:00,
2013-04-15 12:38:00,67.5,42.3,30.01,South,191,5.4,11.0,40,0.00,,SCT250,0.00,VWS V14.01,2013-04-15 16:38:00,
2013-04-15 12:43:00,67.5,41.7,30.01,South,172,8.7,12.8,39,0.00,,SCT250,0.00,VWS V14.01,2013-04-15 16:43:00,
2013-04-15 12:48:00,67.5,41.7,30.01,SSW,211,10.1,11.0,39,0.00,,SCT250,0.00,VWS V14.01,2013-04-15 16:48:00,
2013-04-15 12:53:00,67.6,41.8,30.01,SSE,167,5.8,10.1,39,0.00,,SCT250,0.00,VWS V14.01,2013-04-15 16:53:00,
2013-04-15 12:59:00,68.2,41.6,30.01,South,191,11.4,15.9,38,0.00,,SCT250,0.00,VWS V14.01,2013-04-15 16:59:00,
2013-04-15 13:04:00,68.4,41.8,30.01,SSW,199,8.3,11.0,38,0.00,,SCT250,0.00,VWS V14.01,2013-04-15 17:04:00,
2013-04-15 13:09:00,68.4,42.5,30.01,SSW,211,3.1,10.5,39,0.00,,SCT250,0.00,VWS V14.01,2013-04-15 17:09:00,
2013-04-15 13:14:00,68.7,42.8,30.01,SSW,209,8.7,10.5,39,0.00,,SCT250,0.00,VWS V14.01,2013-04-15 17:14:00,
2013-04-15 13:19:00,68.5,42.6,30.01,South,186,9.6,10.1,39,0.00,,SCT250,0.00,VWS V14.01,2013-04-15 17:19:00,
2013-04-15 13:22:00,68.5,42.0,30.01,South,179,7.6,11.0,38,0.00,,SCT250,0.00,VWS V14.01,2013-04-15 17:22:00,
2013-04-15 13:23:00,68.4,41.8,30.01,South,183,8.3,11.0,38,0.00,,SCT250,0.00,VWS V14.01,2013-04-15 17:23:00,
2013-04-15 13:26:00,68.4,41.1,30.01,South,178,7.6,10.1,37,0.00,,SCT250,0.00,VWS V14.01,2013-04-15 17:26:00,
2013-04-15 13:28:00,68.4,41.1,30.01,WSW,252,7.6,11.0,37,0.00,,SCT250,0.00,VWS V14.01,2013-04-15 17:28:00,
2013-04-15 13:33:00,68.5,41.3,30.01,SW,228,7.6,8.7,37,0.00,,SCT250,0.00,VWS V14.01,2013-04-15 17:33:00,
2013-04-15 13:34:00,68.7,42.1,30.01,South,189,5.8,9.6,38,0.00,,SCT250,0.00,VWS V14.01,2013-04-15 17:34:00,
2013-04-15 13:39:00,68.9,42.3,30.01,South,173,8.3,10.5,38,0.00,,SCT250,0.00,VWS V14.01,2013-04-15 17:39:00,
2013-04-15 13:44:00,68.9,42.3,30.01,SSW,208,7.6,10.1,38,0.00,,SCT250,0.00,VWS V14.01,2013-04-15 17:44:00,
2013-04-15 13:51:00,69.3,42.6,30.01,South,174,10.1,14.5,38,0.00,,SCT250,0.00,VWS V14.01,2013-04-15 17:51:00,
2013-04-15 13:56:00,69.4,42.8,30.01,SW,223,7.6,11.0,38,0.00,,SCT250,0.00,VWS V14.01,2013-04-15 17:56:00,
2013-04-15 14:04:00,68.9,41.6,30.01,SW,221,8.7,12.3,37,0.00,,BKN250,0.00,VWS V14.01,2013-04-15 18:04:00,
2013-04-15 14:09:00,68.7,42.1,30.01,South,186,8.7,8.7,38,0.00,,BKN250,0.00,VWS V14.01,2013-04-15 18:09:00,
2013-04-15 14:14:00,68.5,41.3,30.01,South,185,5.8,8.3,37,0.00,,BKN250,0.00,VWS V14.01,2013-04-15 18:14:00,
2013-04-15 14:19:00,68.9,41.6,30.01,SW,232,12.3,14.1,37,0.00,,BKN250,0.00,VWS V14.01,2013-04-15 18:19:00,
2013-04-15 14:25:00,68.9,42.3,30.01,SW,216,11.0,11.0,38,0.00,,BKN250,0.00,VWS V14.01,2013-04-15 18:25:00,
2013-04-15 14:30:00,69.1,42.4,30.01,South,181,8.7,13.2,38,0.00,,BKN250,0.00,VWS V14.01,2013-04-15 18:30:00,
2013-04-15 14:31:00,69.1,41.7,30.01,South,184,8.3,10.1,37,0.00,,BKN250,0.00,VWS V14.01,2013-04-15 18:31:00,
2013-04-15 14:32:00,69.1,42.4,30.01,South,179,8.1,10.1,38,0.00,,BKN250,0.00,VWS V14.01,2013-04-15 18:32:00,
2013-04-15 14:34:00,69.1,42.4,30.01,South,177,8.7,10.1,38,0.00,,BKN250,0.00,VWS V14.01,2013-04-15 18:34:00,
2013-04-15 14:36:00,69.1,41.7,30.01,SSW,193,8.1,10.5,37,0.00,,BKN250,0.00,VWS V14.01,2013-04-15 18:36:00,
2013-04-15 14:41:00,69.1,41.7,30.01,South,178,11.9,11.9,37,0.00,,BKN250,0.00,VWS V14.01,2013-04-15 18:41:00,
2013-04-15 14:46:00,68.9,41.6,30.01,SSW,213,8.3,11.0,37,0.00,,BKN250,0.00,VWS V14.01,2013-04-15 18:46:00,
2013-04-15 14:51:00,68.9,41.6,30.01,SSE,158,10.1,10.1,37,0.00,,BKN250,0.00,VWS V14.01,2013-04-15 18:51:00,
2013-04-15 14:57:00,68.5,41.3,30.01,SW,217,8.3,8.7,37,0.00,,BKN250,0.00,VWS V14.01,2013-04-15 18:57:00,
2013-04-15 15:02:00,68.2,40.9,30.01,South,184,8.3,11.0,37,0.00,,BKN250,0.00,VWS V14.01,2013-04-15 19:02:00,
2013-04-15 15:07:00,68.2,40.9,30.01,South,169,8.1,8.3,37,0.00,,BKN250,0.00,VWS V14.01,2013-04-15 19:07:00,
2013-04-15 15:12:00,68.4,41.1,30.01,SSE,168,5.8,8.7,37,0.00,,BKN250,0.00,VWS V14.01,2013-04-15 19:12:00,
2013-04-15 15:17:00,68.5,41.3,30.01,SSW,192,8.1,10.5,37,0.00,,BKN250,0.00,VWS V14.01,2013-04-15 19:17:00,
2013-04-15 15:22:00,68.7,41.4,30.01,SSW,208,8.3,9.2,37,0.00,,BKN250,0.00,VWS V14.01,2013-04-15 19:22:00,
2013-04-15 15:27:00,69.3,42.6,30.01,South,176,7.6,8.1,38,0.00,,BKN250,0.00,VWS V14.01,2013-04-15 19:27:00,
2013-04-15 15:33:00,70.0,43.9,30.01,SSE,167,8.7,10.1,39,0.00,,BKN250,0.00,VWS V14.01,2013-04-15 19:33:00,
2013-04-15 15:38:00,70.0,43.2,30.01,SSE,156,5.8,6.3,38,0.00,,BKN250,0.00,VWS V14.01,2013-04-15 19:38:00,
2013-04-15 15:43:00,69.8,42.4,30.01,SSW,207,5.4,8.3,37,0.00,,BKN250,0.00,VWS V14.01,2013-04-15 19:43:00,
2013-04-15 15:49:00,70.5,43.0,30.01,SSE,166,10.1,10.5,37,0.00,,BKN250,0.00,VWS V14.01,2013-04-15 19:49:00,
2013-04-15 15:56:00,70.3,42.9,29.98,South,177,0.0,6.3,37,0.00,,BKN250,0.00,VWS V14.01,2013-04-15 19:56:00,
2013-04-15 15:57:00,70.3,42.9,29.98,SSW,208,3.1,3.1,37,0.00,,BKN250,0.00,VWS V14.01,2013-04-15 19:57:00,
2013-04-15 15:59:00,70.3,42.9,29.98,South,187,2.2,6.3,37,0.00,,BKN250,0.00,VWS V14.01,2013-04-15 19:59:00,
2013-04-15 16:00:00,70.0,42.5,29.98,SE,146,2.7,6.3,37,0.00,,BKN250,0.00,VWS V14.01,2013-04-15 20:00:00,
2013-04-15 16:02:00,70.0,41.8,29.98,South,180,11.0,11.0,36,0.00,,BKN250,0.00,VWS V14.01,2013-04-15 20:02:00,
2013-04-15 16:03:00,70.2,42.0,29.98,South,175,8.3,11.0,36,0.00,,BKN250,0.00,VWS V14.01,2013-04-15 20:03:00,
2013-04-15 16:04:00,70.5,43.0,29.98,SSE,151,4.0,11.0,37,0.00,,BKN250,0.00,VWS V14.01,2013-04-15 20:04:00,
2013-04-15 16:06:00,70.9,43.3,29.98,SSE,166,3.6,11.0,37,0.00,,BKN250,0.00,VWS V14.01,2013-04-15 20:06:00,
2013-04-15 16:07:00,70.5,43.0,29.98,SE,145,4.9,8.3,37,0.00,,BKN250,0.00,VWS V14.01,2013-04-15 20:07:00,
2013-04-15 16:12:00,70.5,42.3,29.98,SSE,163,10.1,13.2,36,0.00,,BKN250,0.00,VWS V14.01,2013-04-15 20:12:00,
2013-04-15 16:17:00,70.5,43.0,29.98,SSE,149,6.3,6.3,37,0.00,,BKN250,0.00,VWS V14.01,2013-04-15 20:17:00,
2013-04-15 16:23:00,70.7,42.5,29.98,SSE,152,10.5,13.2,36,0.00,,BKN250,0.00,VWS V14.01,2013-04-15 20:23:00,
2013-04-15 16:28:00,70.2,42.0,29.98,South,171,2.7,8.7,36,0.00,,BKN250,0.00,VWS V14.01,2013-04-15 20:28:00,
2013-04-15 16:33:00,69.8,40.9,29.98,SSW,212,5.4,8.1,35,0.00,,BKN250,0.00,VWS V14.01,2013-04-15 20:33:00,
2013-04-15 16:38:00,69.8,41.7,29.98,SE,137,7.2,8.7,36,0.00,,BKN250,0.00,VWS V14.01,2013-04-15 20:38:00,
2013-04-15 16:43:00,70.2,42.0,29.98,SE,144,5.4,10.1,36,0.00,,BKN250,0.00,VWS V14.01,2013-04-15 20:43:00,
2013-04-15 16:48:00,70.2,41.3,29.98,SSE,155,13.2,14.5,35,0.00,,BKN250,0.00,VWS V14.01,2013-04-15 20:48:00,
2013-04-15 16:53:00,69.8,41.7,29.98,SSE,158,4.0,10.1,36,0.00,,BKN250,0.00,VWS V14.01,2013-04-15 20:53:00,
2013-04-15 16:58:00,69.4,41.3,29.98,SE,137,7.6,8.3,36,0.00,,BKN250,0.00,VWS V14.01,2013-04-15 20:58:00,
2013-04-15 17:03:00,69.4,40.6,29.98,SE,135,10.1,11.0,35,0.00,,BKN250,0.00,VWS V14.01,2013-04-15 21:03:00,
2013-04-15 17:08:00,69.4,41.3,29.95,SSW,194,12.3,13.2,36,0.00,,BKN250,0.00,VWS V14.01,2013-04-15 21:08:00,
2013-04-15 17:13:00,69.4,42.1,29.95,South,179,5.8,6.7,37,0.00,,BKN250,0.00,VWS V14.01,2013-04-15 21:13:00,
2013-04-15 17:18:00,69.4,41.3,29.95,SSE,155,11.0,12.3,36,0.00,,BKN250,0.00,VWS V14.01,2013-04-15 21:18:00,
2013-04-15 17:23:00,69.3,41.2,29.95,South,179,8.1,10.5,36,0.00,,BKN250,0.00,VWS V14.01,2013-04-15 21:23:00,
2013-04-15 17:28:00,69.3,41.2,29.95,South,179,8.1,15.0,36,0.00,,BKN250,0.00,VWS V14.01,2013-04-15 21:28:00,
2013-04-15 17:33:00,69.1,41.0,29.95,South,170,10.1,10.5,36,0.00,,BKN250,0.00,VWS V14.01,2013-04-15 21:33:00,
2013-04-15 17:38:00,69.3,41.2,29.95,South,177,6.7,11.9,36,0.00,,BKN250,0.00,VWS V14.01,2013-04-15 21:38:00,
2013-04-15 17:43:00,69.3,41.2,29.95,SE,143,8.1,13.2,36,0.00,,BKN250,0.00,VWS V14.01,2013-04-15 21:43:00,
2013-04-15 17:48:00,69.4,41.3,29.95,SSE,166,8.7,9.6,36,0.00,,BKN250,0.00,VWS V14.01,2013-04-15 21:48:00,
2013-04-15 17:53:00,69.6,41.5,29.95,SE,143,11.0,11.0,36,0.00,,BKN250,0.00,VWS V14.01,2013-04-15 21:53:00,
2013-04-15 17:58:00,69.8,40.9,29.95,SSW,196,7.6,10.1,35,0.00,,BKN250,0.00,VWS V14.01,2013-04-15 21:58:00,
2013-04-15 18:03:00,69.8,40.9,29.95,South,182,10.1,13.2,35,0.00,,BKN250,0.00,VWS V14.01,2013-04-15 22:03:00,
2013-04-15 18:08:00,69.4,40.6,29.95,South,185,8.1,12.8,35,0.00,,BKN250,0.00,VWS V14.01,2013-04-15 22:08:00,
2013-04-15 18:13:00,69.1,40.3,29.95,SSW,205,13.2,17.4,35,0.00,,BKN250,0.00,VWS V14.01,2013-04-15 22:13:00,
2013-04-15 18:18:00,68.9,40.2,29.95,SSW,194,10.5,15.4,35,0.00,,BKN250,0.00,VWS V14.01,2013-04-15 22:18:00,
2013-04-15 18:23:00,68.9,39.4,29.95,South,183,11.0,19.7,34,0.00,,BKN250,0.00,VWS V14.01,2013-04-15 22:23:00,
2013-04-15 18:29:00,69.1,39.6,29.95,South,181,15.4,20.6,34,0.00,,BKN250,0.00,VWS V14.01,2013-04-15 22:29:00,
2013-04-15 18:34:00,69.1,40.3,29.95,SW,220,12.8,15.4,35,0.00,,BKN250,0.00,VWS V14.01,2013-04-15 22:34:00,
2013-04-15 18:39:00,68.7,40.0,29.95,South,183,13.2,15.4,35,0.00,,BKN250,0.00,VWS V14.01,2013-04-15 22:39:00,
2013-04-15 18:44:00,68.0,39.3,29.95,SSW,210,10.5,17.9,35,0.00,,BKN250,0.00,VWS V14.01,2013-04-15 22:44:00,
2013-04-15 18:49:00,67.5,38.9,29.95,South,176,6.3,13.2,35,0.00,,BKN250,0.00,VWS V14.01,2013-04-15 22:49:00,
2013-04-15 18:54:00,67.1,38.6,29.98,SW,217,15.0,15.0,35,0.00,,BKN250,0.00,VWS V14.01,2013-04-15 22:54:00,
2013-04-15 18:59:00,66.9,39.1,29.98,SSW,209,8.3,13.2,36,0.00,,BKN250,0.00,VWS V14.01,2013-04-15 22:59:00,
2013-04-15 19:04:00,66.7,39.0,29.98,SSE,161,14.5,24.2,36,0.00,,BKN250,0.00,VWS V14.01,2013-04-15 23:04:00,
2013-04-15 19:09:00,66.4,38.6,29.98,SSW,193,12.8,17.4,36,0.00,,BKN250,0.00,VWS V14.01,2013-04-15 23:09:00,
2013-04-15 19:14:00,65.8,39.5,29.98,South,189,11.0,13.2,38,0.00,,BKN250,0.00,VWS V14.01,2013-04-15 23:14:00,
2013-04-15 19:19:00,65.5,39.2,29.98,SSE,163,8.7,10.1,38,0.00,,BKN250,0.00,VWS V14.01,2013-04-15 23:19:00,
2013-04-15 19:24:00,64.9,39.4,29.98,South,180,8.7,13.2,39,0.00,,BKN250,0.00,VWS V14.01,2013-04-15 23:24:00,
2013-04-15 19:29:00,64.6,38.4,29.98,South,187,11.0,17.4,38,0.00,,BKN250,0.00,VWS V14.01,2013-04-15 23:29:00,
2013-04-15 19:34:00,64.0,38.6,29.98,South,183,16.3,16.3,39,0.00,,BKN250,0.00,VWS V14.01,2013-04-15 23:34:00,
2013-04-15 19:39:00,63.7,38.9,29.98,SSE,161,8.7,13.2,40,0.00,,BKN250,0.00,VWS V14.01,2013-04-15 23:39:00,
2013-04-15 19:44:00,63.5,38.8,29.98,SSW,194,9.2,18.3,40,0.00,,BKN250,0.00,VWS V14.01,2013-04-15 23:44:00,
2013-04-15 19:49:00,63.3,38.6,29.98,SSW,192,15.0,17.4,40,0.00,,BKN250,0.00,VWS V14.01,2013-04-15 23:49:00,
2013-04-15 19:54:00,63.0,38.9,29.98,SSW,213,10.1,19.2,41,0.00,,BKN250,0.00,VWS V14.01,2013-04-15 23:54:00,
2013-04-15 19:59:00,62.8,38.8,29.98,South,184,12.8,14.5,41,0.00,,BKN250,0.00,VWS V14.01,2013-04-15 23:59:00,
2013-04-15 20:04:00,62.4,39.0,29.98,SSW,211,6.7,10.5,42,0.00,,BKN250,0.00,VWS V14.01,2013-04-16 00:04:00,
2013-04-15 20:09:00,62.1,39.3,29.98,SSW,194,8.7,12.8,43,0.00,,BKN250,0.00,VWS V14.01,2013-04-16 00:09:00,
2013-04-15 20:14:00,61.7,39.6,29.98,South,180,5.4,8.3,44,0.00,,BKN250,0.00,VWS V14.01,2013-04-16 00:14:00,
2013-04-15 20:19:00,61.5,39.4,29.98,South,172,8.1,10.1,44,0.00,,BKN250,0.00,VWS V14.01,2013-04-16 00:19:00,
2013-04-15 20:24:00,61.5,39.4,29.98,SSW,201,8.1,12.8,44,0.00,,BKN250,0.00,VWS V14.01,2013-04-16 00:24:00,
2013-04-15 20:30:00,61.3,39.3,29.98,SW,216,5.4,16.8,44,0.00,,BKN250,0.00,VWS V14.01,2013-04-16 00:30:00,
2013-04-15 20:35:00,61.2,39.1,29.98,SW,232,8.1,14.5,44,0.00,,BKN250,0.00,VWS V14.01,2013-04-16 00:35:00,
2013-04-15 20:40:00,61.0,38.9,29.98,South,177,10.5,16.3,44,0.00,,BKN250,0.00,VWS V14.01,2013-04-16 00:40:00,
2013-04-15 20:45:00,60.8,38.8,29.98,South,180,8.7,11.0,44,0.00,,BKN250,0.00,VWS V14.01,2013-04-16 00:45:00,
2013-04-15 20:50:00,60.6,39.2,29.98,SSW,198,8.3,8.7,45,0.00,,BKN250,0.00,VWS V14.01,2013-04-16 00:50:00,
2013-04-15 20:55:00,60.4,39.0,30.01,SSE,154,8.3,12.3,45,0.00,,BKN250,0.00,VWS V14.01,2013-04-16 00:55:00,
2013-04-15 21:00:00,60.3,38.8,30.01,South,186,10.1,11.0,45,0.00,,BKN250,0.00,VWS V14.01,2013-04-16 01:00:00,
2013-04-15 21:05:00,60.3,39.4,30.01,South,177,8.1,10.1,46,0.00,,BKN330,0.00,VWS V14.01,2013-04-16 01:05:00,
2013-04-15 21:10:00,60.1,39.2,30.01,SSW,200,8.1,12.3,46,0.00,,BKN330,0.00,VWS V14.01,2013-04-16 01:10:00,
2013-04-15 21:15:00,60.1,39.2,30.01,South,187,8.7,8.7,46,0.00,,BKN330,0.00,VWS V14.01,2013-04-16 01:15:00,
2013-04-15 21:20:00,59.7,39.5,30.01,SSW,205,11.0,11.0,47,0.00,,BKN330,0.00,VWS V14.01,2013-04-16 01:20:00,
2013-04-15 21:25:00,59.5,39.3,30.01,SW,226,5.4,7.6,47,0.00,,BKN330,0.00,VWS V14.01,2013-04-16 01:25:00,
2013-04-15 21:30:00,59.5,39.3,30.01,SSW,193,11.0,11.0,47,0.00,,BKN330,0.00,VWS V14.01,2013-04-16 01:30:00,
2013-04-15 21:35:00,59.5,39.3,30.01,South,172,8.1,10.5,47,0.00,,BKN210,0.00,VWS V14.01,2013-04-16 01:35:00,
2013-04-15 21:40:00,59.4,39.7,30.01,SSW,203,6.7,12.3,48,0.00,,BKN210,0.00,VWS V14.01,2013-04-16 01:40:00,
2013-04-15 21:45:00,59.4,39.7,30.01,South,189,8.3,12.8,48,0.00,,BKN210,0.00,VWS V14.01,2013-04-16 01:45:00,
2013-04-15 21:50:00,59.4,39.7,30.01,SSE,167,13.2,13.2,48,0.00,,BKN210,0.00,VWS V14.01,2013-04-16 01:50:00,
2013-04-15 21:55:00,59.4,39.7,30.01,South,189,10.1,14.5,48,0.00,,BKN210,0.00,VWS V14.01,2013-04-16 01:55:00,
2013-04-15 22:00:00,59.4,39.7,30.01,SSW,207,13.2,15.0,48,0.00,,BKN210,0.00,VWS V14.01,2013-04-16 02:00:00,
2013-04-15 22:05:00,59.4,39.7,30.01,SSW,198,8.1,13.2,48,0.00,,BKN210,0.00,VWS V14.01,2013-04-16 02:05:00,
2013-04-15 22:10:00,59.2,39.5,30.01,South,177,7.6,15.0,48,0.00,,BKN210,0.00,VWS V14.01,2013-04-16 02:10:00,
2013-04-15 22:15:00,59.0,39.9,30.01,SSE,155,7.6,8.1,49,0.00,,BKN210,0.00,VWS V14.01,2013-04-16 02:15:00,
2013-04-15 22:20:00,58.6,39.5,30.01,South,173,6.7,8.7,49,0.00,,BKN210,0.00,VWS V14.01,2013-04-16 02:20:00,
2013-04-15 22:25:00,58.5,39.9,30.01,SSW,196,8.3,9.6,50,0.00,,BKN210,0.00,VWS V14.01,2013-04-16 02:25:00,
2013-04-15 22:30:00,58.5,39.9,30.01,SSE,168,6.3,13.2,50,0.00,,BKN210,0.00,VWS V14.01,2013-04-16 02:30:00,
2013-04-15 22:36:00,58.5,39.9,30.01,South,169,12.8,13.6,50,0.00,,FEW210,0.00,VWS V14.01,2013-04-16 02:36:00,
2013-04-15 22:41:00,58.5,39.9,30.01,SSW,195,8.7,17.9,50,0.00,,FEW210,0.00,VWS V14.01,2013-04-16 02:41:00,
2013-04-15 22:46:00,58.3,39.7,30.01,SSW,199,11.0,12.8,50,0.00,,FEW210,0.00,VWS V14.01,2013-04-16 02:46:00,
2013-04-15 22:51:00,58.1,39.6,30.01,South,181,8.7,12.3,50,0.00,,FEW210,0.00,VWS V14.01,2013-04-16 02:51:00,
2013-04-15 22:56:00,58.1,39.6,30.01,SW,220,8.1,13.2,50,0.00,,FEW210,0.00,VWS V14.01,2013-04-16 02:56:00,
2013-04-15 23:01:00,58.3,39.7,30.01,SSE,166,12.8,13.2,50,0.00,,FEW210,0.00,VWS V14.01,2013-04-16 03:01:00,
2013-04-15 23:06:00,58.1,39.6,30.01,South,182,8.3,8.3,50,0.00,,FEW210,0.00,VWS V14.01,2013-04-16 03:06:00,
2013-04-15 23:11:00,57.9,39.4,30.01,South,178,8.7,8.7,50,0.00,,FEW210,0.00,VWS V14.01,2013-04-16 03:11:00,
2013-04-15 23:16:00,57.9,39.4,30.01,SE,145,12.8,12.8,50,0.00,,FEW210,0.00,VWS V14.01,2013-04-16 03:16:00,
2013-04-15 23:21:00,57.9,39.4,30.01,South,174,10.1,12.3,50,0.00,,FEW210,0.00,VWS V14.01,2013-04-16 03:21:00,
2013-04-15 23:26:00,57.9,39.4,30.01,SSW,201,10.5,16.3,50,0.00,,FEW210,0.00,VWS V14.01,2013-04-16 03:26:00,
2013-04-15 23:31:00,57.7,39.2,30.01,South,190,10.1,13.2,50,0.00,,FEW210,0.00,VWS V14.01,2013-04-16 03:31:00,
2013-04-15 23:37:00,57.7,39.2,29.98,SSW,195,10.1,12.3,50,0.00,,BKN210,0.00,VWS V14.01,2013-04-16 03:37:00,
2013-04-15 23:42:00,57.7,39.8,29.98,South,174,11.0,13.2,51,0.00,,BKN210,0.00,VWS V14.01,2013-04-16 03:42:00,
2013-04-15 23:47:00,57.7,39.8,29.98,SSW,205,8.7,11.0,51,0.00,,BKN210,0.00,VWS V14.01,2013-04-16 03:47:00,
2013-04-15 23:52:00,57.7,39.8,30.01,South,188,8.1,12.8,51,0.00,,BKN210,0.00,VWS V14.01,2013-04-16 03:52:00,
2013-04-15 23:57:00,57.7,39.8,30.01,SSW,202,8.7,10.5,51,0.00,,BKN210,0.00,VWS V14.01,2013-04-16 03:57:00,